Location: Unspecified
(54.1780°N, 4.6260°W)
Time: 23:10:18
(UTC+00:00)

Cosmos 2333 - Visible Passes

Search period start: 18 November 2025 00:00
Search period end: 28 November 2025 00:00
Orbit: 828 x 865 km, 70.9° (Epoch: 18 November)

Date Brightness Start Highest point End Pass type
(mag) Time Alt. Az. Time Alt. Az. Time Alt. Az.
18 Nov 6.7 02:52:38 16° NNE 02:52:38 16° NNE 02:53:42 10° NNE visible
18 Nov 5.9 04:34:33 21° N 04:34:33 21° N 04:37:46 10° NNE visible
18 Nov 6.2 06:16:27 10° NW 06:19:38 15° N 06:22:54 10° NNE visible
19 Nov 6.9 02:39:24 13° NNE 02:39:24 13° NNE 02:40:02 10° NNE visible
19 Nov 6.0 04:21:18 20° N 04:21:18 20° N 04:24:07 10° NNE visible
19 Nov 6.2 06:03:13 11° NNW 06:05:56 15° N 06:09:14 10° NNE visible
20 Nov 7.1 02:26:09 11° NNE 02:26:09 11° NNE 02:26:23 10° NNE visible
20 Nov 6.2 04:08:03 19° N 04:08:03 19° N 04:10:27 10° NNE visible
20 Nov 6.2 05:49:58 12° NNW 05:52:15 15° N 05:55:32 10° NNE visible
21 Nov 6.3 03:54:48 18° N 03:54:48 18° N 03:56:48 10° NNE visible
21 Nov 6.2 05:36:42 13° NNW 05:38:34 15° N 05:41:52 10° NNE visible
22 Nov 6.5 03:41:31 16° N 03:41:31 16° N 03:43:09 10° NNE visible
22 Nov 6.2 05:23:26 14° NNW 05:24:53 15° N 05:28:10 10° NNE visible
22 Nov 6.0 07:07:04 10° NNW 07:11:23 21° NNE 07:15:39 10° ENE visible
23 Nov 6.6 03:28:15 15° NNE 03:28:15 15° NNE 03:29:29 10° NNE visible
23 Nov 6.2 05:10:09 15° NNW 05:11:12 15° N 05:14:29 10° NNE visible
23 Nov 6.0 06:53:25 10° NNW 06:57:42 21° NNE 07:01:57 10° ENE visible
24 Nov 6.8 03:14:57 13° NNE 03:14:57 13° NNE 03:15:50 10° NNE visible
24 Nov 6.2 04:56:52 15° N 04:57:31 15° N 05:00:48 10° NNE visible
24 Nov 6.1 06:39:46 10° NNW 06:44:00 20° NNE 06:48:14 10° ENE visible
25 Nov 6.9 03:01:40 12° NNE 03:01:40 12° NNE 03:02:11 10° NNE visible
25 Nov 6.3 04:43:35 15° N 04:43:49 15° N 04:47:07 10° NNE visible
25 Nov 6.1 06:26:06 10° NNW 06:30:20 20° NNE 06:34:31 10° ENE visible
26 Nov 7.0 02:48:23 11° NNE 02:48:23 11° NNE 02:48:32 10° NNE visible
26 Nov 6.3 04:30:17 15° N 04:30:17 15° N 04:33:26 10° NNE visible
26 Nov 6.1 06:12:26 10° NNW 06:16:38 20° NNE 06:20:49 10° ENE visible
27 Nov 6.4 04:17:00 15° N 04:17:00 15° N 04:19:45 10° NNE visible
27 Nov 6.1 05:58:55 10° NNW 06:02:58 20° NNE 06:07:07 10° ENE visible
